Location: Unspecified
(51.0000°N, 12.0000°E)
Time: 03:06:38
(UTC+01:00)

ISS - Pass Details

Date: 12 November 2017
Orbit: 402 x 407 km, 51.6° (Epoch: 20 November)

Event Time Altitude Azimuth Distance (km) Brightness Sun altitude
Exits shadow 05:52:43 30° 268° (W) 761 -3.0 -14.2°
Maximum altitude 05:54:06 57° 202° (SSW) 479 -3.6 -14.0°
Drops below altitude 10° 05:57:18 10° 122° (ESE) 1,454 0.2 -13.5°
Sets 05:59:23 0° 118° (ESE) 2,311 1.6 -13.2°
